Hutchinson, KS

9:09 PM CDT on August 29, 2016 (GMT -0500)
Hutchinson Municipal

Weather History for KHUT - April, 2013

Change the Weather History Date:

Saturday, April 13, 2013

  Actual Average Record
Temperature  
Mean Temperature 52 °F -  
Max Temperature 72 °F 66 °F 98 °F (2006)
Min Temperature 33 °F 40 °F 25 °F (1997)
Degree Days  
Heating Degree Days 13    
Growing Degree Days 2 (Base 50)    
Moisture  
Dew Point 39 °F    
Average Humidity 60    
Maximum Humidity 89    
Minimum Humidity 42    
Precipitation  
Precipitation 0.00 in - - ()
Sea Level Pressure  
Sea Level Pressure 29.82 in    
Wind  
Wind Speed 8 mph (SSE)    
Max Wind Speed 24 mph    
Max Gust Speed 32 mph    
Visibility 10 miles    
Events      
Averages and records for this station are not official NWS values.
T = Trace of Precipitation, MM = Missing Value Source: NWS Daily Summary

Daily Weather History Graph

Daily Weather History Graph

Search for Another Location

Airport or City:

Trip Planner

Search our weather history database for the weather conditions in past years. The results will help you decide how hot, cold, wet, or windy it might be!

Date:

Astronomy

Apr. 13, 2013 Rise Set
Actual Time 6:58 AM CDT 8:05 PM CDT
Civil Twilight 6:31 AM CDT 8:33 PM CDT
Nautical Twilight 5:59 AM CDT 9:05 PM CDT
Astronomical Twilight 5:25 AM CDT 9:39 PM CDT
Moon 8:53 AM CDT (4/13) 11:28 PM CDT (4/13)
Length of Visible Light 14h 01m
Length of Day
13h 07m
Waxing Crescent, 10% of the Moon is Illuminated
Apr 13
Waxing Crescent
Apr 18
First Quarter
Apr 25
Full
May 2
Last Quarter
May 9
New

Hourly Weather History & Observations

Time (CDT) Temp. Windchill Dew Point Humidity Pressure Visibility Wind Dir Wind Speed Gust Speed Precip Events Conditions
12:52 AM 43.0 °F - 33.1 °F 68% 30.06 in 10.0 mi Calm Calm - N/A   Clear
1:52 AM 41.0 °F - 33.1 °F 73% 30.05 in 10.0 mi Calm Calm - N/A   Clear
2:52 AM 35.1 °F - 32.0 °F 89% 30.04 in 10.0 mi Calm Calm - N/A   Clear
3:52 AM 33.1 °F - 30.0 °F 89% 30.02 in 10.0 mi Calm Calm - N/A   Clear
4:52 AM 33.1 °F 30.0 °F 30.0 °F 89% 30.03 in 10.0 mi East 3.5 mph - N/A   Partly Cloudy
5:52 AM 35.1 °F 31.0 °F 28.9 °F 78% 30.01 in 10.0 mi ESE 4.6 mph - N/A   Clear
6:52 AM 37.0 °F 33.3 °F 28.9 °F 73% 30.00 in 10.0 mi ESE 4.6 mph - N/A   Clear
7:52 AM 42.1 °F 36.1 °F 30.9 °F 65% 29.99 in 10.0 mi SE 10.4 mph - N/A   Clear
8:52 AM 46.9 °F - 34.0 °F 61% 29.99 in 10.0 mi SE 9.2 mph - N/A   Clear
9:52 AM 51.1 °F - 35.1 °F 54% 29.97 in 10.0 mi SSE 11.5 mph - N/A   Clear
10:52 AM 55.0 °F - 36.0 °F 49% 29.94 in 10.0 mi SSE 13.8 mph - N/A   Clear
11:52 AM 59.0 °F - 36.0 °F 42% 29.90 in 10.0 mi SSE 12.7 mph - N/A   Clear
12:52 PM 63.0 °F - 43.0 °F 48% 29.84 in 10.0 mi SSE 16.1 mph 26.5 mph N/A   Clear
1:52 PM 66.0 °F - 44.1 °F 45% 29.79 in 10.0 mi South 24.2 mph 32.2 mph N/A   Clear
2:52 PM 66.9 °F - 46.9 °F 49% 29.75 in 10.0 mi South 19.6 mph 28.8 mph N/A   Scattered Clouds
3:52 PM 68.0 °F - 48.9 °F 50% 29.70 in 10.0 mi South 20.7 mph 29.9 mph N/A   Partly Cloudy
4:52 PM 69.1 °F - 48.0 °F 47% 29.65 in 10.0 mi South 20.7 mph 29.9 mph N/A   Partly Cloudy
5:52 PM 71.1 °F - 48.9 °F 45% 29.60 in 10.0 mi SSW 24.2 mph 32.2 mph N/A   Clear
6:52 PM 71.1 °F - 48.9 °F 45% 29.57 in 10.0 mi South 18.4 mph 25.3 mph N/A   Clear
7:52 PM 66.9 °F - 46.9 °F 49% 29.58 in 10.0 mi South 17.3 mph - N/A   Clear
8:52 PM 64.0 °F - 46.0 °F 52% 29.57 in 10.0 mi South 19.6 mph - N/A   Clear
9:52 PM 63.0 °F - 46.9 °F 56% 29.56 in 10.0 mi South 19.6 mph 29.9 mph N/A   Clear
10:52 PM 62.1 °F - 46.0 °F 56% 29.56 in 10.0 mi South 20.7 mph 28.8 mph N/A   Clear
11:52 PM 60.1 °F - 45.0 °F 57% 29.53 in 10.0 mi South 20.7 mph - N/A   Clear